W7KKE-3 Weather Reports


Display with metric or nautical units.
time (UTC)temp
F
wind
direction
speed
MPH
gust
MPH
rain 1hr
in
rain 24hr
in
rain mn
in
humidity
%
barometer
mb
20160730052512 61 309 12.0 25.0 0.00 0.00 0.00 95 1016.0
20160730052010 61 296 15.0 20.0 0.00 0.00 0.00 95 1016.0
20160730050510 61 337 12.0 21.0 0.00 0.00 0.00 95 1016.0
20160730050010 61 329 6.0 21.0 0.00 0.00 0.00 95 1016.1
20160730045512 61 340 9.0 21.0 0.00 0.00 0.00 95 1016.0
20160730044510 61 336 6.0 14.0 0.00 0.00 0.00 95 1016.1
20160730043510 61 317 6.0 18.0 0.00 0.00 0.00 95 1015.9
20160730043011 61 333 6.0 18.0 0.00 0.00 0.00 95 1015.9
20160730042512 61 330 7.0 18.0 0.00 0.00 0.00 95 1015.8
20160730040510 62 302 12.0 25.0 0.00 0.00 0.00 94 1015.7
20160730040010 62 309 10.0 17.0 0.00 0.00 0.00 94 1015.6
20160730035513 62 327 10.0 17.0 0.00 0.00 0.00 94 1015.6
20160730034510 62 305 11.0 20.0 0.00 0.00 0.00 94 1015.5
20160730034010 62 338 7.0 20.0 0.00 0.00 0.00 94 1015.5
20160730033510 62 319 12.0 20.0 0.00 0.00 0.00 94 1015.5
20160730033009 62 327 8.0 17.0 0.00 0.00 0.00 94 1015.5
20160730032512 62 352 12.0 20.0 0.00 0.00 0.00 94 1015.5
20160730031509 62 319 12.0 20.0 0.00 0.00 0.00 94 1015.4
20160730031010 62 337 12.0 21.0 0.00 0.00 0.00 94 1015.4
20160730030509 62 340 11.0 21.0 0.00 0.00 0.00 94 1015.5
20160730030009 62 303 11.0 21.0 0.00 0.00 0.00 93 1015.5
20160730025513 62 319 14.0 19.0 0.00 0.00 0.00 93 1015.4
20160730025009 62 305 12.0 23.0 0.00 0.00 0.00 93 1015.4
20160730024510 63 319 15.0 23.0 0.00 0.00 0.00 93 1015.4
20160730023509 63 317 12.0 25.0 0.00 0.00 0.00 93 1015.4
20160730023010 63 326 12.0 25.0 0.00 0.00 0.00 93 1015.3
20160730022510 63 309 14.0 25.0 0.00 0.00 0.00 93 1015.3
20160730022010 63 317 17.0 24.0 0.00 0.00 0.00 93 1015.3
20160730021510 63 313 13.0 24.0 0.00 0.00 0.00 93 1015.3
20160730021010 63 340 13.0 25.0 0.00 0.00 0.00 92 1015.3
20160730020509 63 320 14.0 25.0 0.00 0.00 0.00 92 1015.3
20160730020010 63 336 16.0 25.0 0.00 0.00 0.00 92 1015.3
20160730013509 63 340 14.0 21.0 0.00 0.00 0.00 91 1015.4
20160730013009 63 313 13.0 20.0 0.00 0.00 0.00 91 1015.3
20160730012510 63 319 14.0 22.0 0.00 0.00 0.00 91 1015.3
20160730012009 64 337 13.0 22.0 0.00 0.00 0.00 91 1015.4
20160730011509 64 298 13.0 22.0 0.00 0.00 0.00 91 1015.3
20160730011009 64 320 13.0 24.0 0.00 0.00 0.00 90 1015.3
20160730010509 64 320 14.0 24.0 0.00 0.00 0.00 90 1015.4
20160730010009 64 310 16.0 24.0 0.00 0.00 0.00 90 1015.4
20160730005510 64 291 14.0 25.0 0.00 0.00 0.00 89 1015.4
20160730005009 64 315 14.0 25.0 0.00 0.00 0.00 89 1015.5
20160730004510 65 319 13.0 25.0 0.00 0.00 0.00 89 1015.6
20160730004009 65 284 15.0 21.0 0.00 0.00 0.00 88 1015.6
20160730003509 65 327 14.0 24.0 0.00 0.00 0.00 88 1015.6
20160730003009 65 327 17.0 24.0 0.00 0.00 0.00 87 1015.6
20160730002510 66 289 17.0 24.0 0.00 0.00 0.00 87 1015.5
20160730002009 66 308 14.0 27.0 0.00 0.00 0.00 87 1015.7
20160730001509 66 315 17.0 27.0 0.00 0.00 0.00 86 1015.7
20160730001009 66 326 14.0 27.0 0.00 0.00 0.00 87 1015.7
20160730000509 66 330 14.0 25.0 0.00 0.00 0.00 87 1015.7
20160730000009 66 315 15.0 25.0 0.00 0.00 0.00 87 1015.7
20160729235510 66 331 13.0 25.0 0.00 0.00 0.00 87 1015.8
20160729235009 66 326 15.0 23.0 0.00 0.00 0.00 87 1015.8
20160729234510 66 331 13.0 23.0 0.00 0.00 0.00 87 1015.8
20160729234009 66 313 17.0 28.0 0.00 0.00 0.00 87 1015.9
20160729233509 66 313 15.0 28.0 0.00 0.00 0.00 87 1015.9
20160729233010 66 322 15.0 28.0 0.00 0.00 0.00 86 1016.0
20160729232510 67 334 16.0 27.0 0.00 0.00 0.00 86 1016.1
20160729232009 67 327 16.0 27.0 0.00 0.00 0.00 86 1016.1
20160729230009 68 329 15.0 23.0 0.00 0.00 0.00 85 1016.2
20160729225510 68 326 16.0 23.0 0.00 0.00 0.00 85 1016.2
20160729224509 67 317 12.0 23.0 0.00 0.00 0.00 86 1016.3
20160729223010 66 312 16.0 24.0 0.00 0.00 0.00 88 1016.3
20160729222512 66 299 10.0 24.0 0.00 0.00 0.00 88 1016.3
20160729222009 66 319 14.0 24.0 0.00 0.00 0.00 87 1016.4
20160729221510 66 299 11.0 21.0 0.00 0.00 0.00 87 1016.5
20160729221009 66 317 13.0 21.0 0.00 0.00 0.00 86 1016.4
20160729220509 66 310 13.0 21.0 0.00 0.00 0.00 86 1016.4
20160729220009 66 322 12.0 20.0 0.00 0.00 0.00 86 1016.4
20160729215510 66 340 11.0 22.0 0.00 0.00 0.00 87 1016.3
20160729215009 66 312 10.0 22.0 0.00 0.00 0.00 86 1016.4
20160729214509 66 306 11.0 22.0 0.00 0.00 0.00 86 1016.5
20160729214009 66 306 12.0 21.0 0.00 0.00 0.00 86 1016.5
20160729212009 68 296 15.0 26.0 0.00 0.00 0.00 82 1016.5
20160729211509 68 344 13.0 26.0 0.00 0.00 0.00 81 1016.4
20160729211009 69 315 16.0 23.0 0.00 0.00 0.00 80 1016.3
20160729210509 69 322 15.0 24.0 0.00 0.00 0.00 80 1016.3
20160729210009 69 350 15.0 24.0 0.00 0.00 0.00 79 1016.4
20160729205510 69 330 15.0 24.0 0.00 0.00 0.00 79 1016.3
20160729205009 69 337 16.0 24.0 0.00 0.00 0.00 79 1016.3
20160729204509 69 316 10.0 24.0 0.00 0.00 0.00 79 1016.3
20160729204009 69 302 16.0 24.0 0.00 0.00 0.00 80 1016.3
20160729203509 69 316 14.0 26.0 0.00 0.00 0.00 79 1016.3
20160729203009 69 316 17.0 26.0 0.00 0.00 0.00 80 1016.3
20160729202512 69 315 15.0 26.0 0.00 0.00 0.00 81 1016.5
20160729202009 69 323 16.0 23.0 0.00 0.00 0.00 80 1016.4
20160729201509 68 333 14.0 26.0 0.00 0.00 0.00 82 1016.4
20160729201011 68 315 17.0 26.0 0.00 0.00 0.00 82 1016.4
20160729200509 68 305 15.0 26.0 0.00 0.00 0.00 82 1016.4
20160729200009 69 313 15.0 27.0 0.00 0.00 0.00 82 1016.5
20160729195511 68 344 16.0 27.0 0.00 0.00 0.00 82 1016.5
20160729195009 68 323 16.0 27.0 0.00 0.00 0.00 82 1016.5
20160729194509 69 324 18.0 25.0 0.00 0.00 0.00 81 1016.4
20160729194009 69 334 14.0 22.0 0.00 0.00 0.00 81 1016.5
20160729192009 68 308 16.0 24.0 0.00 0.00 0.00 82 1016.5
20160729191509 68 305 14.0 24.0 0.00 0.00 0.00 82 1016.4
20160729191009 68 341 15.0 23.0 0.00 0.00 0.00 82 1016.4
20160729190509 68 317 15.0 23.0 0.00 0.00 0.00 82 1016.4
20160729190009 68 324 15.0 23.0 0.00 0.00 0.00 83 1016.4
20160729185510 69 313 16.0 21.0 0.00 0.00 0.00 82 1016.4
20160729185010 68 331 13.0 21.0 0.00 0.00 0.00 83 1016.4
20160729184509 68 324 13.0 24.0 0.00 0.00 0.00 83 1016.3
20160729184009 68 317 13.0 24.0 0.00 0.00 0.00 84 1016.3
20160729183509 68 319 16.0 24.0 0.00 0.00 0.00 83 1016.3
20160729183010 68 308 14.0 22.0 0.00 0.00 0.00 84 1016.3
20160729182510 68 329 16.0 22.0 0.00 0.00 0.00 83 1016.2
20160729182009 68 292 13.0 22.0 0.00 0.00 0.00 84 1016.3
20160729181509 69 312 15.0 22.0 0.00 0.00 0.00 84 1016.3
20160729181009 69 327 15.0 21.0 0.00 0.00 0.00 84 1016.4
20160729180510 69 336 15.0 20.0 0.00 0.00 0.00 84 1016.4
20160729174510 69 330 12.0 19.0 0.00 0.00 0.00 86 1016.5
20160729174009 69 310 13.0 19.0 0.00 0.00 0.00 85 1016.5
20160729173510 69 313 12.0 17.0 0.00 0.00 0.00 86 1016.5
20160729173010 69 306 11.0 17.0 0.00 0.00 0.00 86 1016.6
20160729172511 69 301 9.0 17.0 0.00 0.00 0.00 88 1016.5
20160729172010 68 327 10.0 17.0 0.00 0.00 0.00 89 1016.5
20160729171011 67 309 10.0 17.0 0.00 0.00 0.00 91 1016.6
20160729170509 67 316 12.0 17.0 0.00 0.00 0.00 91 1016.5
20160729165009 66 301 8.0 18.0 0.00 0.00 0.00 94 1016.7
20160729164011 65 308 9.0 17.0 0.00 0.00 0.00 95 1016.8
20160729163010 64 334 11.0 16.0 0.00 0.00 0.00 96 1016.8
20160729162009 63 327 10.0 18.0 0.00 0.00 0.00 97 1016.8
20160729161010 62 324 10.0 18.0 0.00 0.00 0.00 97 1016.8
20160729154011 59 301 6.0 10.0 0.00 0.00 0.00 98 1016.9
20160729144509 58 336 0.0 10.0 0.00 0.00 0.00 98 1017.0
20160729111011 56 0 0.0 0.0 0.00 0.00 0.00 98 1016.9
20160729105511 56 0 0.0 0.0 0.00 0.00 0.00 98 1016.8
20160729104509 56 0 0.0 0.0 0.00 0.00 0.00 98 1017.0
20160729103509 55 0 0.0 0.0 0.00 0.00 0.00 97 1017.0
20160729103009 55 0 0.0 0.0 0.00 0.00 0.00 97 1017.0
20160729102511 56 0 0.0 0.0 0.00 0.00 0.00 97 1017.0
20160729102009 56 0 0.0 5.0 0.00 0.00 0.00 97 1017.0
20160729100509 56 79 3.0 5.0 0.00 0.00 0.00 97 1017.0
20160729095511 56 147 0.0 6.0 0.00 0.00 0.00 97 1017.0
20160729095009 56 257 1.0 6.0 0.00 0.00 0.00 97 1017.1
20160729094509 56 0 1.0 1.0 0.00 0.00 0.00 97 1017.1
20160729093009 56 0 0.0 0.0 0.00 0.00 0.00 97 1017.1
20160729092511 56 0 0.0 0.0 0.00 0.00 0.00 97 1017.1
20160729092009 57 0 0.0 0.0 0.00 0.00 0.00 97 1017.1
20160729091010 57 0 0.0 0.0 0.00 0.00 0.00 97 1017.1
20160729090509 57 0 0.0 0.0 0.00 0.00 0.00 97 1017.1
20160729090009 57 0 0.0 0.0 0.00 0.00 0.00 97 1017.2
20160729085512 57 317 0.0 8.0 0.00 0.00 0.00 97 1017.1
20160729084010 57 291 0.0 7.0 0.00 0.00 0.00 97 1017.0
20160729082009 57 294 0.0 9.0 0.00 0.00 0.00 97 1017.2
20160729080509 57 303 0.0 10.0 0.00 0.00 0.00 97 1017.3
20160729080008 57 0 0.0 10.0 0.00 0.00 0.00 97 1017.3
20160729075009 57 0 4.0 4.0 0.00 0.00 0.00 97 1017.2
20160729074509 57 0 0.0 0.0 0.00 0.00 0.00 97 1017.3
20160729073509 57 317 0.0 7.0 0.00 0.00 0.00 97 1017.3
20160729073009 58 301 0.0 7.0 0.00 0.00 0.00 97 1017.2
20160729072511 58 275 4.0 6.0 0.00 0.00 0.00 97 1017.3
20160729072008 58 292 0.0 6.0 0.00 0.00 0.00 97 1017.3
20160729071508 58 285 2.0 5.0 0.00 0.00 0.00 97 1017.2
20160729070508 58 319 0.0 11.0 0.00 0.00 0.00 97 1017.4
20160729065009 58 308 5.0 8.0 0.00 0.00 0.00 97 1017.3
20160729064509 58 303 5.0 7.0 0.00 0.00 0.00 97 1017.3
20160729064011 58 296 4.0 9.0 0.00 0.00 0.00 97 1017.2
20160729063509 58 322 0.0 9.0 0.00 0.00 0.00 97 1017.2
20160729063009 58 323 5.0 9.0 0.00 0.00 0.00 97 1017.3
20160729062509 58 322 2.0 8.0 0.00 0.00 0.00 97 1017.3
20160729062008 58 316 4.0 8.0 0.00 0.00 0.00 96 1017.3
20160729061508 58 305 6.0 11.0 0.00 0.00 0.00 96 1017.3
20160729061010 58 317 7.0 11.0 0.00 0.00 0.00 96 1017.3
20160729060509 58 313 7.0 11.0 0.00 0.00 0.00 96 1017.3
20160729060009 58 327 9.0 13.0 0.00 0.00 0.00 96 1017.3
20160729055511 58 319 8.0 13.0 0.00 0.00 0.00 96 1017.4
20160729055009 58 329 9.0 13.0 0.00 0.00 0.00 96 1017.3
20160729054508 59 310 8.0 12.0 0.00 0.00 0.00 96 1017.3
20160729053508 59 308 7.0 10.0 0.00 0.00 0.00 96 1017.2